"Data set title: Gaging station water sample data. Usage: Event based table used with water chemistry collection from 01-Oct-2022 to 30-Sep-2023",,,,,,,,,,,,
,,,,,,,,,,,,,
"Site","Date","RecNum","SiteID","Flag_SiteID","LOGGERID","PROGID","VNOTCH_INST_0_0_01","Flag_VNOTCH_INST_0_0_01","SAMPLE_INST_0_0_01","Flag_SAMPLE_INST_0_0_01","STAGE_INST_0_0_01","Flag_STAGE_INST_0_0_01"
"","yyyy-MM-dd HH:mm:ss","count","","none","none","none","none","none","count","none","ft","none"
"nominal","datetime","nominal","data","code","nominal","nominal","data","code","data","code","data","code"
"GSWS06_118",2022-10-01 08:51:00,2190,106.00,"",118,34812.0,0,"",23,"",0.0160,""
"GSWS06_118",2022-10-01 22:09:00,2191,106.00,"",118,34812.0,0,"",24,"",0.0140,""
"GSWS06_118",2022-10-02 11:27:00,2192,106.00,"",118,34812.0,0,"",25,"",0.0140,""
"GSWS06_118",2022-10-03 00:45:00,2193,106.00,"",118,34812.0,0,"",26,"",0.0140,""
"GSWS06_118",2022-10-03 14:03:00,2194,106.00,"",118,34812.0,0,"",27,"",0.0140,""
"GSWS06_118",2022-10-04 03:21:00,2195,106.00,"",118,34812.0,0,"",28,"",0.0140,""
"GSWS06_118",2022-10-04 16:39:00,2196,106.00,"",118,34812.0,0,"",29,"",0.0130,""
"GSWS06_118",2022-10-05 05:57:00,2197,106.00,"",118,34812.0,0,"",30,"",0.0130,""
"GSWS06_118",2022-10-05 19:15:00,2198,106.00,"",118,34812.0,0,"",31,"",0.0130,""
"GSWS06_118",2022-10-06 08:33:00,2199,106.00,"",118,34812.0,0,"",32,"",0.0140,""
"GSWS06_118",2022-10-06 21:51:00,2200,106.00,"",118,34812.0,0,"",33,"",0.0140,""
"GSWS06_118",2022-10-07 11:09:00,2201,106.00,"",118,34812.0,0,"",34,"",0.0130,""
"GSWS06_118",2022-10-08 00:27:00,2202,106.00,"",118,34812.0,0,"",35,"",0.0110,""
"GSWS06_118",2022-10-08 13:45:00,2203,106.00,"",118,34812.0,0,"",36,"",0.0120,""
"GSWS06_118",2022-10-09 03:03:00,2204,106.00,"",118,34812.0,0,"",37,"",0.0110,""
"GSWS06_118",2022-10-09 16:21:00,2205,106.00,"",118,34812.0,0,"",38,"",0.0120,""
"GSWS06_118",2022-10-10 05:39:00,2206,106.00,"",118,34812.0,0,"",39,"",0.0110,""
"GSWS06_118",2022-10-10 18:57:00,2207,106.00,"",118,34812.0,0,"",40,"",0.0120,""
"GSWS06_118",2022-10-11 08:15:00,2208,106.00,"",118,34812.0,0,"",41,"",0.0120,""
"GSWS06_118",2022-10-11 21:33:00,2209,106.00,"",118,34812.0,0,"",42,"",0.0120,""
"GSWS06_118",2022-10-12 10:51:00,2210,106.00,"",118,34812.0,0,"",43,"",0.0120,""
"GSWS06_118",2022-10-13 00:09:00,2211,106.00,"",118,34812.0,0,"",1,"",0.0100,""
"GSWS06_118",2022-10-13 13:27:00,2212,106.00,"",118,34812.0,0,"",2,"",0.0100,""
"GSWS06_118",2022-10-14 02:45:00,2213,106.00,"",118,34812.0,0,"",3,"",0.0120,""
"GSWS06_118",2022-10-14 16:03:00,2214,106.00,"",118,34812.0,0,"",4,"",0.0110,""
"GSWS06_118",2022-10-15 05:21:00,2215,106.00,"",118,34812.0,0,"",5,"",0.0110,""
"GSWS06_118",2022-10-15 18:39:00,2216,106.00,"",118,34812.0,0,"",6,"",0.0110,""
"GSWS06_118",2022-10-16 07:57:00,2217,106.00,"",118,34812.0,0,"",7,"",0.0120,""
"GSWS06_118",2022-10-16 21:15:00,2218,106.00,"",118,34812.0,0,"",8,"",0.0100,""
"GSWS06_118",2022-10-17 10:33:00,2219,106.00,"",118,34812.0,0,"",9,"",0.0100,""
"GSWS06_118",2022-10-17 23:51:00,2220,106.00,"",118,34812.0,0,"",10,"",0.0100,""
"GSWS06_118",2022-10-18 13:09:00,2221,106.00,"",118,34812.0,0,"",11,"",0.0100,""
"GSWS06_118",2022-10-18 15:39:30,2222,106.00,"",118,34812.0,0,"",12,"",0.0100,""
"GSWS06_118",2022-10-19 02:27:00,2223,106.00,"",118,34812.0,0,"",13,"",0.0100,""
"GSWS06_118",2022-10-19 15:45:00,2224,106.00,"",118,34812.0,0,"",14,"",0.0100,""
"GSWS06_118",2022-10-20 05:03:00,2225,106.00,"",118,34812.0,0,"",15,"",0.0100,""
"GSWS06_118",2022-10-20 18:21:00,2226,106.00,"",118,34812.0,0,"",16,"",0.0100,""
"GSWS06_118",2022-10-21 07:39:00,2227,106.00,"",118,34812.0,0,"",17,"",0.0100,""
"GSWS06_118",2022-10-21 20:57:00,2228,106.00,"",118,34812.0,0,"",18,"",0.0390,""
"GSWS06_118",2022-10-22 10:15:00,2229,106.00,"",118,34812.0,0,"",19,"",0.0360,""
"GSWS06_118",2022-10-22 23:33:00,2230,106.00,"",118,34812.0,0,"",20,"",0.0260,""
"GSWS06_118",2022-10-23 12:51:00,2231,106.00,"",118,34812.0,0,"",21,"",0.0220,""
"GSWS06_118",2022-10-24 02:09:00,2232,106.00,"",118,34812.0,0,"",22,"",0.0170,""
"GSWS06_118",2022-10-24 15:27:00,2233,106.00,"",118,34812.0,0,"",23,"",0.0460,""
"GSWS06_118",2022-10-25 04:45:00,2234,106.00,"",118,34812.0,0,"",24,"",0.0260,""
"GSWS06_118",2022-10-25 17:24:15,2235,106.00,"",118,34812.0,0,"",25,"",0.0220,""
"GSWS06_118",2022-10-25 18:03:00,2236,106.00,"",118,34812.0,0,"",26,"",0.0210,""
"GSWS06_118",2022-10-26 07:21:00,2237,106.00,"",118,34812.0,0,"",27,"",0.0520,""
"GSWS06_118",2022-10-26 20:39:00,2238,106.00,"",118,34812.0,0,"",28,"",0.0260,""
"GSWS06_118",2022-10-27 09:57:00,2239,106.00,"",118,34812.0,0,"",29,"",0.0210,""
"GSWS06_118",2022-10-27 23:15:00,2240,106.00,"",118,34812.0,0,"",30,"",0.0180,""
"GSWS06_118",2022-10-28 12:33:00,2241,106.00,"",118,34812.0,0,"",31,"",0.0180,""
"GSWS06_118",2022-10-29 01:51:00,2242,106.00,"",118,34812.0,0,"",32,"",0.0170,""
"GSWS06_118",2022-10-29 15:09:00,2243,106.00,"",118,34812.0,0,"",33,"",0.0160,""
"GSWS06_118",2022-10-30 04:27:00,2244,106.00,"",118,34812.0,0,"",34,"",0.0160,""
"GSWS06_118",2022-10-30 17:45:00,2245,106.00,"",118,34812.0,0,"",35,"",0.0160,""
"GSWS06_118",2022-10-31 07:03:00,2246,106.00,"",118,34812.0,0,"",36,"",0.0160,""
"GSWS06_118",2022-10-31 20:21:00,2247,106.00,"",118,34812.0,0,"",1,"",0.0140,""
"GSWS06_118",2022-11-01 09:39:00,2248,106.00,"",118,34812.0,0,"",2,"",0.0370,""
"GSWS06_118",2022-11-01 22:57:00,2249,106.00,"",118,34812.0,0,"",3,"",0.0290,""
"GSWS06_118",2022-11-02 12:15:00,2250,106.00,"",118,34812.0,0,"",4,"",0.0250,""
"GSWS06_118",2022-11-03 01:33:00,2251,106.00,"",118,34812.0,0,"",5,"",0.0220,""
"GSWS06_118",2022-11-03 14:51:00,2252,106.00,"",118,34812.0,0,"",1,"",0.0210,""
"GSWS06_118",2022-11-04 04:09:00,2253,106.00,"",118,34812.0,0,"",2,"",0.0680,""
"GSWS06_118",2022-11-04 17:27:00,2254,106.00,"",118,34812.0,0,"",3,"",0.1830,""
"GSWS06_118",2022-11-05 06:45:00,2255,106.00,"",118,34812.0,0,"",4,"",0.1740,""
"GSWS06_118",2022-11-05 20:03:00,2256,106.00,"",118,34812.0,0,"",5,"",0.1300,""
"GSWS06_118",2022-11-06 09:21:00,2257,106.00,"",118,34812.0,0,"",6,"",0.1140,""
"GSWS06_118",2022-11-06 22:39:00,2258,106.00,"",118,34812.0,0,"",7,"",0.1050,""
"GSWS06_118",2022-11-07 11:57:00,2259,106.00,"",118,34812.0,0,"",8,"",0.0940,""
"GSWS06_118",2022-11-08 01:15:00,2260,106.00,"",118,34812.0,0,"",9,"",0.0870,""
"GSWS06_118",2022-11-08 14:33:00,2261,106.00,"",118,34812.0,0,"",10,"",0.0820,""
"GSWS06_118",2022-11-09 03:51:00,2262,106.00,"",118,34812.0,0,"",11,"",0.0780,""
"GSWS06_118",2022-11-09 17:09:00,2263,106.00,"",118,34812.0,0,"",12,"",0.0730,""
"GSWS06_118",2022-11-10 06:27:00,2264,106.00,"",118,34812.0,0,"",13,"",0.0690,""
"GSWS06_118",2022-11-10 19:45:00,2265,106.00,"",118,34812.0,0,"",14,"",0.0670,""
"GSWS06_118",2022-11-11 09:03:00,2266,106.00,"",118,34812.0,0,"",15,"",0.0650,""
"GSWS06_118",2022-11-11 22:21:00,2267,106.00,"",118,34812.0,0,"",16,"",0.0630,""
"GSWS06_118",2022-11-12 11:39:00,2268,106.00,"",118,34812.0,0,"",17,"",0.0630,""
"GSWS06_118",2022-11-13 00:57:00,2269,106.00,"",118,34812.0,0,"",18,"",0.0620,""
"GSWS06_118",2022-11-13 14:15:00,2270,106.00,"",118,34812.0,0,"",19,"",0.0600,""
"GSWS06_118",2022-11-14 03:33:00,2271,106.00,"",118,34812.0,0,"",20,"",0.0590,""
"GSWS06_118",2022-11-14 16:51:00,2272,106.00,"",118,34812.0,0,"",21,"",0.0570,""
"GSWS06_118",2022-11-15 06:09:00,2273,106.00,"",118,34812.0,0,"",22,"",0.0560,""
"GSWS06_118",2022-11-15 19:27:00,2274,106.00,"",118,34812.0,0,"",23,"",0.0560,""
"GSWS06_118",2022-11-16 08:45:00,2275,106.00,"",118,34812.0,0,"",24,"",0.0560,""
"GSWS06_118",2022-11-16 22:03:00,2276,106.00,"",118,34812.0,0,"",25,"",0.0580,""
"GSWS06_118",2022-11-17 11:21:00,2277,106.00,"",118,34812.0,0,"",26,"",0.0580,""
"GSWS06_118",2022-11-18 00:39:00,2278,106.00,"",118,34812.0,0,"",27,"",0.0570,""
"GSWS06_118",2022-11-18 13:57:00,2279,106.00,"",118,34812.0,0,"",28,"",0.0560,""
"GSWS06_118",2022-11-19 03:15:00,2280,106.00,"",118,34812.0,0,"",29,"",0.0560,""
"GSWS06_118",2022-11-19 16:33:00,2281,106.00,"",118,34812.0,0,"",30,"",0.0560,""
"GSWS06_118",2022-11-20 05:51:00,2282,106.00,"",118,34812.0,0,"",31,"",0.0560,""
"GSWS06_118",2022-11-20 19:09:00,2283,106.00,"",118,34812.0,0,"",32,"",0.0540,""
"GSWS06_118",2022-11-21 08:27:00,2284,106.00,"",118,34812.0,0,"",33,"",0.0540,""
"GSWS06_118",2022-11-21 17:15:00,2285,106.00,"",118,34812.0,0,"",34,"",0.0520,""
"GSWS06_118",2022-11-21 21:45:00,2286,106.00,"",118,34812.0,0,"",1,"",0.0520,""
"GSWS06_118",2022-11-22 11:03:00,2287,106.00,"",118,34812.0,0,"",2,"",0.0520,""
"GSWS06_118",2022-11-23 00:21:00,2288,106.00,"",118,34812.0,0,"",3,"",0.0620,""
"GSWS06_118",2022-11-23 13:39:00,2289,106.00,"",118,34812.0,0,"",4,"",0.0580,""
"GSWS06_118",2022-11-24 02:57:00,2290,106.00,"",118,34812.0,0,"",5,"",0.0560,""
"GSWS06_118",2022-11-24 16:15:00,2291,106.00,"",118,34812.0,0,"",6,"",0.0540,""
"GSWS06_118",2022-11-25 05:33:00,2292,106.00,"",118,34812.0,0,"",7,"",0.0540,""
"GSWS06_118",2022-11-25 18:51:00,2293,106.00,"",118,34812.0,0,"",8,"",0.0520,""
"GSWS06_118",2022-11-26 08:09:00,2294,106.00,"",118,34812.0,0,"",9,"",0.0530,""
"GSWS06_118",2022-11-26 21:27:00,2295,106.00,"",118,34812.0,0,"",10,"",0.0530,""
"GSWS06_118",2022-11-27 10:45:00,2296,106.00,"",118,34812.0,0,"",11,"",0.0530,""
"GSWS06_118",2022-11-28 00:03:00,2297,106.00,"",118,34812.0,0,"",12,"",0.0710,""
"GSWS06_118",2022-11-28 13:21:00,2298,106.00,"",118,34812.0,0,"",13,"",0.0670,""
"GSWS06_118",2022-11-29 02:39:00,2299,106.00,"",118,34812.0,0,"",14,"",0.0640,""
"GSWS06_118",2022-11-29 15:57:00,2300,106.00,"",118,34812.0,0,"",15,"",0.0620,""
"GSWS06_118",2022-11-30 05:15:00,2301,106.00,"",118,34812.0,0,"",16,"",0.0640,""
"GSWS06_118",2022-11-30 18:33:00,2302,106.00,"",118,34812.0,0,"",17,"",0.0800,""
"GSWS06_118",2022-12-01 07:51:00,2303,106.00,"",118,34812.0,0,"",18,"",0.0770,""
"GSWS06_118",2022-12-01 21:09:00,2304,106.00,"",118,34812.0,0,"",19,"",0.0730,""
"GSWS06_118",2022-12-04 02:21:00,2305,106.00,"",118,34812.0,0,"",20,"",0.0770,""
"GSWS06_118",2022-12-04 15:39:00,2306,106.00,"",118,34812.0,0,"",21,"",0.0770,""
"GSWS06_118",2022-12-05 04:57:00,2307,106.00,"",118,34812.0,0,"",22,"",0.0740,""
"GSWS06_118",2022-12-05 18:15:00,2308,106.00,"",118,34812.0,0,"",23,"",0.0760,""
"GSWS06_118",2022-12-06 07:33:00,2309,106.00,"",118,34812.0,0,"",24,"",0.0760,""
"GSWS06_118",2022-12-06 20:51:00,2310,106.00,"",118,34812.0,0,"",25,"",0.0760,""
"GSWS06_118",2022-12-07 10:09:00,2311,106.00,"",118,34812.0,0,"",26,"",0.0760,""
"GSWS06_118",2022-12-07 23:27:00,2312,106.00,"",118,34812.0,0,"",27,"",0.0750,""
"GSWS06_118",2022-12-08 12:45:00,2313,106.00,"",118,34812.0,0,"",28,"",0.0750,""
"GSWS06_118",2022-12-09 02:03:00,2314,106.00,"",118,34812.0,0,"",29,"",0.0750,""
"GSWS06_118",2022-12-09 15:21:00,2315,106.00,"",118,34812.0,0,"",30,"",0.0760,""
"GSWS06_118",2022-12-10 04:39:00,2316,106.00,"",118,34812.0,0,"",31,"",0.1400,""
"GSWS06_118",2022-12-10 17:57:00,2317,106.00,"",118,34812.0,0,"",32,"",0.1370,""
"GSWS06_118",2022-12-11 07:15:00,2318,106.00,"",118,34812.0,0,"",33,"",0.1390,""
"GSWS06_118",2022-12-11 20:33:00,2319,106.00,"",118,34812.0,0,"",34,"",0.1400,""
"GSWS06_118",2022-12-12 09:51:00,2320,106.00,"",118,34812.0,0,"",35,"",0.1400,""
"GSWS06_118",2022-12-12 23:09:00,2321,106.00,"",118,34812.0,0,"",36,"",0.1360,""
"GSWS06_118",2022-12-13 12:27:00,2322,106.00,"",118,34812.0,0,"",37,"",0.1300,""
"GSWS06_118",2022-12-14 01:45:00,2323,106.00,"",118,34812.0,0,"",1,"",0.1300,""
"GSWS06_118",2022-12-14 15:03:00,2324,106.00,"",118,34812.0,0,"",2,"",0.1270,""
"GSWS06_118",2022-12-15 04:21:00,2325,106.00,"",118,34812.0,0,"",3,"",0.1230,""
"GSWS06_118",2022-12-15 17:39:00,2326,106.00,"",118,34812.0,0,"",4,"",0.1200,""
"GSWS06_118",2022-12-16 06:57:00,2327,106.00,"",118,34812.0,0,"",5,"",0.1180,""
"GSWS06_118",2022-12-16 20:15:00,2328,106.00,"",118,34812.0,0,"",6,"",0.1140,""
"GSWS06_118",2022-12-17 09:33:00,2329,106.00,"",118,34812.0,0,"",7,"",0.1130,""
"GSWS06_118",2022-12-17 22:51:00,2330,106.00,"",118,34812.0,0,"",8,"",0.1100,""
"GSWS06_118",2022-12-18 12:09:00,2331,106.00,"",118,34812.0,0,"",9,"",0.1090,""
"GSWS06_118",2022-12-19 01:27:00,2332,106.00,"",118,34812.0,0,"",10,"",0.1070,""
"GSWS06_118",2022-12-19 14:45:00,2333,106.00,"",118,34812.0,0,"",11,"",0.1060,""
"GSWS06_118",2022-12-20 04:03:00,2334,106.00,"",118,34812.0,0,"",12,"",0.1050,""
"GSWS06_118",2022-12-20 17:21:00,2335,106.00,"",118,34812.0,0,"",13,"",0.1410,""
"GSWS06_118",2022-12-21 06:39:00,2336,106.00,"",118,34812.0,0,"",14,"",0.1390,""
"GSWS06_118",2022-12-21 19:57:00,2337,106.00,"",118,34812.0,0,"",15,"",0.1370,""
"GSWS06_118",2022-12-22 09:15:00,2338,106.00,"",118,34812.0,0,"",16,"",0.1390,""
"GSWS06_118",2022-12-22 22:33:00,2339,106.00,"",118,34812.0,0,"",17,"",0.1430,""
"GSWS06_118",2022-12-23 11:51:00,2340,106.00,"",118,34812.0,0,"",18,"",0.1900,""
"GSWS06_118",2022-12-24 01:09:00,2341,106.00,"",118,34812.0,0,"",19,"",0.2040,""
"GSWS06_118",2022-12-24 14:27:00,2342,106.00,"",118,34812.0,0,"",20,"",0.3250,""
"GSWS06_118",2022-12-24 21:05:00,2343,106.00,"",118,34812.0,0,"",21,"",0.4140,""
"GSWS06_118",2022-12-25 03:43:00,2344,106.00,"",118,34812.0,0,"",22,"",0.4760,""
"GSWS06_118",2022-12-25 10:21:00,2345,106.00,"",118,34812.0,0,"",23,"",0.4910,""
"GSWS06_118",2022-12-25 16:59:00,2346,106.00,"",118,34812.0,0,"",24,"",0.5010,""
"GSWS06_118",2022-12-25 23:37:00,2347,106.00,"",118,34812.0,0,"",25,"",0.5010,""
"GSWS06_118",2022-12-26 06:15:00,2348,106.00,"",118,34812.0,0,"",26,"",0.4970,""
"GSWS06_118",2022-12-26 12:53:00,2349,106.00,"",118,34812.0,0,"",27,"",0.4890,""
"GSWS06_118",2022-12-26 18:39:15,2350,106.00,"",118,34812.0,0,"",28,"",0.5090,""
"GSWS06_118",2022-12-26 23:05:15,2351,106.00,"",118,34812.0,0,"",29,"",0.5380,""
"GSWS06_118",2022-12-27 03:31:15,2352,106.00,"",118,34812.0,0,"",30,"",0.5870,""
"GSWS06_118",2022-12-27 06:53:15,2353,106.00,"",118,34812.0,0,"",31,"",0.6380,""
"GSWS06_118",2022-12-27 10:15:15,2354,106.00,"",118,34812.0,0,"",32,"",0.6330,""
"GSWS06_118",2022-12-27 13:37:15,2355,106.00,"",118,34812.0,0,"",33,"",0.6660,""
"GSWS06_118",2022-12-27 16:59:15,2356,106.00,"",118,34812.0,0,"",34,"",0.6750,""
"GSWS06_118",2022-12-27 20:21:15,2357,106.00,"",118,34812.0,0,"",35,"",0.6740,""
"GSWS06_118",2022-12-27 23:43:15,2358,106.00,"",118,34812.0,0,"",36,"",0.6680,""
"GSWS06_118",2022-12-28 03:05:15,2359,106.00,"",118,34812.0,0,"",37,"",0.6540,""
"GSWS06_118",2022-12-28 06:27:15,2360,106.00,"",118,34812.0,0,"",38,"",0.6330,""
"GSWS06_118",2022-12-28 10:53:15,2361,106.00,"",118,34812.0,0,"",39,"",0.6070,""
"GSWS06_118",2022-12-28 15:19:15,2362,106.00,"",118,34812.0,0,"",40,"",0.5840,""
"GSWS06_118",2022-12-28 19:45:15,2363,106.00,"",118,34812.0,0,"",41,"",0.5610,""
"GSWS06_118",2022-12-29 00:11:15,2364,106.00,"",118,34812.0,0,"",42,"",0.5310,""
"GSWS06_118",2022-12-29 04:37:15,2365,106.00,"",118,34812.0,0,"",43,"",0.5410,""
"GSWS06_118",2022-12-29 09:03:15,2366,106.00,"",118,34812.0,0,"",44,"",0.5140,""
"GSWS06_118",2022-12-29 13:29:15,2367,106.00,"",118,34812.0,0,"",45,"",0.5150,""
"GSWS06_118",2022-12-29 20:07:15,2368,106.00,"",118,34812.0,0,"",46,"",0.4930,""
"GSWS06_118",2022-12-30 00:33:15,2369,106.00,"",118,34812.0,0,"",47,"",0.5170,""
"GSWS06_118",2022-12-30 04:59:15,2370,106.00,"",118,34812.0,0,"",48,"",0.5140,""
"GSWS06_118",2022-12-30 09:25:15,2371,106.00,"",118,34812.0,0,"",49,"",0.5290,""
"GSWS06_118",2022-12-30 13:51:15,2372,106.00,"",118,34812.0,0,"",50,"",0.5370,""
"GSWS06_118",2022-12-30 18:17:15,2373,106.00,"",118,34812.0,0,"",51,"",0.5390,""
"GSWS06_118",2022-12-30 22:43:15,2374,106.00,"",118,34812.0,0,"",52,"",0.5260,""
"GSWS06_118",2022-12-31 03:09:15,2375,106.00,"",118,34812.0,0,"",53,"",0.5180,""
"GSWS06_118",2022-12-31 07:35:15,2376,106.00,"",118,34812.0,0,"",54,"",0.5130,""
"GSWS06_118",2022-12-31 12:01:15,2377,106.00,"",118,34812.0,0,"",55,"",0.5330,""
"GSWS06_118",2022-12-31 16:27:15,2378,106.00,"",118,34812.0,0,"",56,"",0.5190,""
"GSWS06_118",2022-12-31 23:05:15,2379,106.00,"",118,34812.0,0,"",57,"",0.4970,""
"GSWS06_118",2023-01-01 05:43:15,2380,106.00,"",118,34812.0,0,"",58,"",0.4750,""
"GSWS06_118",2023-01-01 12:21:15,2381,106.00,"",118,34812.0,0,"",59,"",0.4540,""
"GSWS06_118",2023-01-01 18:59:15,2382,106.00,"",118,34812.0,0,"",60,"",0.4320,""
"GSWS06_118",2023-01-02 01:37:15,2383,106.00,"",118,34812.0,0,"",61,"",0.4120,""
"GSWS06_118",2023-01-02 08:15:15,2384,106.00,"",118,34812.0,0,"",62,"",0.3940,""
"GSWS06_118",2023-01-02 14:53:15,2385,106.00,"",118,34812.0,0,"",63,"",0.3760,""
"GSWS06_118",2023-01-02 21:31:15,2386,106.00,"",118,34812.0,0,"",64,"",0.3580,""
"GSWS06_118",2023-01-03 10:49:15,2387,106.00,"",118,34812.0,0,"",65,"",0.3300,""
"GSWS06_118",2023-01-04 00:07:15,2388,106.00,"",118,34812.0,0,"",66,"",0.3130,""
"GSWS06_118",2023-01-04 12:23:30,2389,106.00,"",118,34812.0,0,"",1,"",0.2940,""
"GSWS06_118",2023-01-04 13:25:15,2390,106.00,"",118,34812.0,0,"",2,"",0.2960,""
"GSWS06_118",2023-01-05 02:43:15,2391,106.00,"",118,34812.0,0,"",3,"",0.2840,""
"GSWS06_118",2023-01-05 16:01:15,2392,106.00,"",118,34812.0,0,"",4,"",0.2800,""
"GSWS06_118",2023-01-06 05:19:15,2393,106.00,"",118,34812.0,0,"",5,"",0.2660,""
"GSWS06_118",2023-01-06 18:37:15,2394,106.00,"",118,34812.0,0,"",6,"",0.2560,""
"GSWS06_118",2023-01-07 07:55:15,2395,106.00,"",118,34812.0,0,"",7,"",0.2500,""
"GSWS06_118",2023-01-07 21:13:15,2396,106.00,"",118,34812.0,0,"",8,"",0.2460,""
"GSWS06_118",2023-01-08 10:31:15,2397,106.00,"",118,34812.0,0,"",9,"",0.2410,""
"GSWS06_118",2023-01-08 23:49:15,2398,106.00,"",118,34812.0,0,"",10,"",0.2320,""
"GSWS06_118",2023-01-09 13:07:15,2399,106.00,"",118,34812.0,0,"",11,"",0.2300,""
"GSWS06_118",2023-01-10 02:25:15,2400,106.00,"",118,34812.0,0,"",12,"",0.2240,""
"GSWS06_118",2023-01-10 15:43:15,2401,106.00,"",118,34812.0,0,"",13,"",0.2170,""
"GSWS06_118",2023-01-11 05:01:15,2402,106.00,"",118,34812.0,0,"",14,"",0.2110,""
"GSWS06_118",2023-01-11 18:19:15,2403,106.00,"",118,34812.0,0,"",15,"",0.2060,""
"GSWS06_118",2023-01-12 07:37:15,2404,106.00,"",118,34812.0,0,"",16,"",0.2040,""
"GSWS06_118",2023-01-12 20:55:15,2405,106.00,"",118,34812.0,0,"",17,"",0.1960,""
"GSWS06_118",2023-01-13 10:13:15,2406,106.00,"",118,34812.0,0,"",18,"",0.1910,""
"GSWS06_118",2023-01-13 23:31:15,2407,106.00,"",118,34812.0,0,"",19,"",0.1930,""
"GSWS06_118",2023-01-14 12:49:15,2408,106.00,"",118,34812.0,0,"",20,"",0.1920,""
"GSWS06_118",2023-01-15 02:07:15,2409,106.00,"",118,34812.0,0,"",21,"",0.1870,""
"GSWS06_118",2023-01-15 15:25:15,2410,106.00,"",118,34812.0,0,"",22,"",0.1920,""
"GSWS06_118",2023-01-16 04:43:15,2411,106.00,"",118,34812.0,0,"",23,"",0.1880,""
"GSWS06_118",2023-01-16 18:01:15,2412,106.00,"",118,34812.0,0,"",24,"",0.1850,""
"GSWS06_118",2023-01-17 07:19:15,2413,106.00,"",118,34812.0,0,"",25,"",0.1830,""
"GSWS06_118",2023-01-17 20:37:15,2414,106.00,"",118,34812.0,0,"",26,"",0.1810,""
"GSWS06_118",2023-01-18 09:55:15,2415,106.00,"",118,34812.0,0,"",27,"",0.1790,""
"GSWS06_118",2023-01-18 23:13:15,2416,106.00,"",118,34812.0,0,"",28,"",0.1790,""
"GSWS06_118",2023-01-19 12:31:15,2417,106.00,"",118,34812.0,0,"",29,"",0.1750,""
"GSWS06_118",2023-01-20 01:49:15,2418,106.00,"",118,34812.0,0,"",30,"",0.1710,""
"GSWS06_118",2023-01-20 15:07:15,2419,106.00,"",118,34812.0,0,"",31,"",0.1680,""
"GSWS06_118",2023-01-21 04:25:15,2420,106.00,"",118,34812.0,0,"",32,"",0.1650,""
"GSWS06_118",2023-01-21 17:43:15,2421,106.00,"",118,34812.0,0,"",33,"",0.1630,""
"GSWS06_118",2023-01-22 07:01:15,2422,106.00,"",118,34812.0,0,"",34,"",0.1600,""
"GSWS06_118",2023-01-22 20:19:15,2423,106.00,"",118,34812.0,0,"",35,"",0.1580,""
"GSWS06_118",2023-01-23 09:37:15,2424,106.00,"",118,34812.0,0,"",36,"",0.1540,""
"GSWS06_118",2023-01-23 22:55:15,2425,106.00,"",118,34812.0,0,"",37,"",0.1580,""
"GSWS06_118",2023-01-24 12:13:15,2426,106.00,"",118,34812.0,0,"",38,"",0.1560,""
"GSWS06_118",2023-01-25 01:31:15,2427,106.00,"",118,34812.0,0,"",39,"",0.1540,""
"GSWS06_118",2023-01-25 14:49:15,2428,106.00,"",118,34812.0,0,"",40,"",0.1490,""
"GSWS06_118",2023-01-26 04:07:15,2429,106.00,"",118,34812.0,0,"",1,"",0.1480,""
"GSWS06_118",2023-01-26 17:25:15,2430,106.00,"",118,34812.0,0,"",2,"",0.1450,""
"GSWS06_118",2023-01-27 06:43:15,2431,106.00,"",118,34812.0,0,"",3,"",0.1430,""
"GSWS06_118",2023-01-27 20:01:15,2432,106.00,"",118,34812.0,0,"",4,"",0.1530,""
"GSWS06_118",2023-01-28 09:19:15,2433,106.00,"",118,34812.0,0,"",5,"",0.1500,""
"GSWS06_118",2023-01-28 22:37:15,2434,106.00,"",118,34812.0,0,"",6,"",0.1480,""
"GSWS06_118",2023-01-31 03:49:15,2435,106.00,"",118,34812.0,0,"",7,"",0.1430,""
"GSWS06_118",2023-01-31 17:07:15,2436,106.00,"",118,34812.0,0,"",8,"",0.1430,""
"GSWS06_118",2023-02-01 06:25:15,2437,106.00,"",118,34812.0,0,"",9,"",0.1420,""
"GSWS06_118",2023-02-01 19:43:15,2438,106.00,"",118,34812.0,0,"",10,"",0.1410,""
"GSWS06_118",2023-02-02 09:01:15,2439,106.00,"",118,34812.0,0,"",11,"",0.1400,""
"GSWS06_118",2023-02-02 22:19:15,2440,106.00,"",118,34812.0,0,"",12,"",0.1370,""
"GSWS06_118",2023-02-03 11:37:15,2441,106.00,"",118,34812.0,0,"",13,"",0.1370,""
"GSWS06_118",2023-02-04 00:55:15,2442,106.00,"",118,34812.0,0,"",14,"",0.1350,""
"GSWS06_118",2023-02-04 14:13:15,2443,106.00,"",118,34812.0,0,"",15,"",0.1340,""
"GSWS06_118",2023-02-05 03:31:15,2444,106.00,"",118,34812.0,0,"",16,"",0.1330,""
"GSWS06_118",2023-02-05 16:49:15,2445,106.00,"",118,34812.0,0,"",17,"",0.1420,""
"GSWS06_118",2023-02-06 06:07:15,2446,106.00,"",118,34812.0,0,"",18,"",0.1430,""
"GSWS06_118",2023-02-06 19:25:15,2447,106.00,"",118,34812.0,0,"",19,"",0.1390,""
"GSWS06_118",2023-02-07 08:43:15,2448,106.00,"",118,34812.0,0,"",20,"",0.1380,""
"GSWS06_118",2023-02-07 22:01:15,2449,106.00,"",118,34812.0,0,"",21,"",0.1600,""
"GSWS06_118",2023-02-08 11:19:15,2450,106.00,"",118,34812.0,0,"",22,"",0.1580,""
"GSWS06_118",2023-02-09 00:37:15,2451,106.00,"",118,34812.0,0,"",23,"",0.1590,""
"GSWS06_118",2023-02-09 13:55:15,2452,106.00,"",118,34812.0,0,"",24,"",0.1620,""
"GSWS06_118",2023-02-10 03:13:15,2453,106.00,"",118,34812.0,0,"",25,"",0.1650,""
"GSWS06_118",2023-02-10 16:31:15,2454,106.00,"",118,34812.0,0,"",26,"",0.1650,""
"GSWS06_118",2023-02-11 05:49:15,2455,106.00,"",118,34812.0,0,"",27,"",0.1650,""
"GSWS06_118",2023-02-11 19:07:15,2456,106.00,"",118,34812.0,0,"",28,"",0.1640,""
"GSWS06_118",2023-02-12 08:25:15,2457,106.00,"",118,34812.0,0,"",29,"",0.1610,""
"GSWS06_118",2023-02-12 21:43:15,2458,106.00,"",118,34812.0,0,"",30,"",0.1590,""
"GSWS06_118",2023-02-13 11:01:15,2459,106.00,"",118,34812.0,0,"",31,"",0.1580,""
"GSWS06_118",2023-02-14 00:19:15,2460,106.00,"",118,34812.0,0,"",32,"",0.1590,""
"GSWS06_118",2023-02-14 13:37:15,2461,106.00,"",118,34812.0,0,"",33,"",0.1580,""
"GSWS06_118",2023-02-15 02:55:15,2462,106.00,"",118,34812.0,0,"",34,"",0.1550,""
"GSWS06_118",2023-02-15 15:49:15,2463,106.00,"",118,34812.0,0,"",35,"",0.1530,""
"GSWS06_118",2023-02-15 16:13:15,2464,106.00,"",118,34812.0,0,"",1,"",0.1530,""
"GSWS06_118",2023-02-16 05:31:15,2465,106.00,"",118,34812.0,0,"",2,"",0.1510,""
"GSWS06_118",2023-02-16 18:49:15,2466,106.00,"",118,34812.0,0,"",3,"",0.1490,""
"GSWS06_118",2023-02-17 08:07:15,2467,106.00,"",118,34812.0,0,"",4,"",0.1450,""
"GSWS06_118",2023-02-17 21:25:15,2468,106.00,"",118,34812.0,0,"",5,"",0.1440,""
"GSWS06_118",2023-02-18 10:43:15,2469,106.00,"",118,34812.0,0,"",6,"",0.1410,""
"GSWS06_118",2023-02-19 00:01:15,2470,106.00,"",118,34812.0,0,"",7,"",0.1390,""
"GSWS06_118",2023-02-19 13:19:15,2471,106.00,"",118,34812.0,0,"",8,"",0.1370,""
"GSWS06_118",2023-02-20 02:37:15,2472,106.00,"",118,34812.0,0,"",9,"",0.1360,""
"GSWS06_118",2023-02-20 15:55:15,2473,106.00,"",118,34812.0,0,"",10,"",0.1350,""
"GSWS06_118",2023-02-21 05:13:15,2474,106.00,"",118,34812.0,0,"",11,"",0.1420,""
"GSWS06_118",2023-02-21 18:31:15,2475,106.00,"",118,34812.0,0,"",12,"",0.1410,""